Regional Weather Roundup
Issued by NWS

Home | Current Version | Previous Version | Graphics & Text | Print | Product List | Glossary On
Versions: 1 2 3 4 5 6 7 8 9 10 11 12 13 14 15 16 17 18 19 20 21 22 23 24 25 26 27 28 29 30 31 32 33 34 35 36 37 38 39 40 41 42 43 44 45 46 47 48 49 50
000
ASUS43 KMPX 250810
RWRMN
WEATHER ROUNDUP FOR MINNESOTA
NATIONAL WEATHER SERVICE TWIN CITIES/CHANHASSEN MN
300 AM CDT SAT APR 25 2015


NOTE: "FAIR" INDICATES FEW OR NO CLOUDS BELOW 12,000 FEET WITH NO
SIGNIFICANT WEATHER AND/OR OBSTRUCTIONS TO VISIBILITY. N/A MEANS
CURRENT SKY AND/OR WEATHER CONDITIONS ARE NOT AVAILABLE.

MNZ060>063-068>070-250900-
   Twin Cities Metro

CITY           SKY/WX    TMP DP  RH WIND       PRES   REMARKS
TWIN CITIES    CLOUDY    44  39  82 E17       29.81S
ST PAUL        CLOUDY    44  38  79 E12       29.83R
CRYSTAL        CLOUDY    45  38  76 E10       29.80S
BLAINE         CLOUDY    46  39  76 E12       29.81F
LAKEVILLE      CLOUDY    41  37  87 E12G18    29.79S
EDEN PRAIRIE   CLOUDY    43  38  82 E12       29.79R
SOUTH ST PAUL  CLOUDY    44  38  81 E12       29.81S
LAKE ELMO      CLOUDY    43  37  81 E9        29.83F
$$
MNZ001>005-007-008-013>017-022>024-027-028-250900-
   Northwest Minnesota

CITY           SKY/WX    TMP DP  RH WIND       PRES   REMARKS
BEMIDJI        CLOUDY    38  29  68 E10       29.85S
HALLOCK        CLOUDY    43  34  70 E8        29.85S
ROSEAU         CLOUDY    41  30  65 E7        29.88S
WARROAD        CLOUDY    39  28  65 E7        29.89S
THIEF RVR FALL CLOUDY    43  30  61 E12       29.84F
CROOKSTON      CLOUDY    45  32  61 E9        29.83F
FOSSTON        CLOUDY    39  30  70 E6        29.84S
DETROIT LAKES  CLOUDY    41  34  75 SE9       29.80S
MOORHEAD       CLOUDY    43  36  75 E7        29.80S
PARK RAPIDS    CLOUDY    41  31  67 E9        29.81F
MAHNOMEN       CLOUDY    41  33  72 E8        29.81F
$$
MNZ006-009>011-018-025>026-250900-
   North Central Minnesota

CITY           SKY/WX    TMP DP  RH WIND       PRES   REMARKS
BAUDETTE       CLOUDY    39  23  52 SE13      29.89F
FLAG ISLAND    CLOUDY    39  27  60 SE3       29.91R
INTL FALLS     CLOUDY    37  20  50 SE8       29.93R
WASKISH        CLOUDY    39  28  65 CALM      29.90R
BIG FORK       CLOUDY    37  19  48 E5        29.90S
LONGVILLE      CLOUDY    37  27  65 E5        29.86R
GRAND RAPIDS   CLOUDY    37  19  48 SE6       29.88S
CRANE LAKE     CLOUDY    36  18  48 CALM      29.97R
ORR            CLOUDY    36  16  44 CALM      29.91R
COOK           CLOUDY    36  18  48 E6        29.93S
WALKER         CLOUDY    38  29  71 E10       29.85S
$$
MNZ012-019>021-037-250900-
   Northeast Minnesota

CITY           SKY/WX    TMP DP  RH WIND       PRES   REMARKS
DULUTH         CLOUDY    36  24  62 E14       29.90S
ELY            CLOUDY    36  18  48 E6        29.95S
HIBBING        CLOUDY    37  18  46 E10       29.91S
EVELETH        CLOUDY    36  18  48 E7        29.93R
DULUTH HARBOR  CLOUDY    36  32  87 NE20      29.94S
TWO HARBORS    CLOUDY    37  25  60 NE12G18   29.92R
SILVER BAY     CLOUDY    36  19  51 NE13      29.94S
GRAND MARAIS     N/A     37   8  30 NE9       30.00F
G MARAIS ARPRT CLOUDY    30   1  29 NE6       29.97S WCI  24
$$
MNZ029>031-032-039>041-046>048-054>057-064-250900-
   West Central Minnesota

CITY           SKY/WX    TMP DP  RH WIND       PRES   REMARKS
FERGUS FALLS   CLOUDY    43  39  87 E9        29.78S
WHEATON        CLOUDY    39  39 100 E15       29.76S FOG
MORRIS         CLOUDY    43  43 100 E15       29.74S FOG
ALEXANDRIA     LGT RAIN  41  40  96 E12       29.78S FOG
ELBOW LAKE     CLOUDY    42  41  98 SE13      29.75F FOG
WADENA         CLOUDY    39  32  75 E9        29.80S
GLENWOOD       CLOUDY    41  41 100 E13       29.77F FOG
APPLETON       CLOUDY    45  41  87 E14       29.74S FOG
BENSON         DRIZZLE   43  41  93 SE10      29.75S
ORTONVILLE     LGT RAIN  43  39  87 E14       29.72S
MADISON        CLOUDY    45  43  93 E13       29.72F FOG
WILLMAR        MIX PCPN  45  43  93 E13G18    29.77R
$$
MNZ033>034-036-042>043-049>051-058-059-250900-
   Central Minnesota

CITY           SKY/WX    TMP DP  RH WIND       PRES   REMARKS
ST CLOUD       CLOUDY    44  38  79 E7        29.80S
SAUK CENTRE    CLOUDY    41  40  98 E9        29.79S FOG
PAYNESVILLE    CLOUDY    40  40 100 NE9       29.78F FOG
AITKIN         CLOUDY    37  28  70 E8        29.85S
PINE RIVER     CLOUDY    37  30  75 E9        29.87F
BRAINERD       CLOUDY    38  31  76 E7        29.85R
STAPLES        CLOUDY    39  30  70 E3        29.82R
LONG PRAIRIE   CLOUDY    41  37  87 E9        29.80S FOG
LITTLE FALLS   CLOUDY    41  32  70 E6        29.82S
LITCHFIELD     CLOUDY    45  45 100 E10       29.78S
BUFFALO        CLOUDY    43  38  83 E9        29.80F
MAPLE LAKE     CLOUDY    44  41  90 E8        29.80S
$$
MNZ037-044-045-052-053-250900-
   East Central Minnesota

CITY           SKY/WX    TMP DP  RH WIND       PRES   REMARKS
PRINCETON      CLOUDY    46  37  71 E13G18    29.82F
MORA           CLOUDY    39  32  75 E6        29.87R
CAMBRIDGE      CLOUDY    46  34  61 E7        29.81S
RUSH CITY      CLOUDY    45  33  63 E6        29.85R
MOOSE LAKE     CLOUDY    34  30  86 CALM      29.86F
HINCKLEY       CLOUDY    41  32  70 NE5       29.86S
CLOQUET        CLOUDY    36  27  69 E6        29.89S
MCGREGOR       CLOUDY    36  30  80 E7        29.87F
$$
MNZ071>073-080-081-089-090-097-098-250900-
   Southwest Minnesota

CITY           SKY/WX    TMP DP  RH WIND       PRES   REMARKS
MONTEVIDEO     CLOUDY    43  43 100 SE13      29.74F FOG
GRANITE FALLS  CLOUDY    43  40  89 E9        29.74S
CANBY          CLOUDY    43  42  95 E10       29.72S FOG
MARSHALL       CLOUDY    45  37  76 E15       29.69F
REDWOOD FALLS  CLOUDY    44  40  85 E9        29.73S
OLIVIA         CLOUDY    41  36  81 E12       29.74S
PIPESTONE      CLOUDY    45  43  93 SE13      29.64F
WINDOM         CLOUDY    45  41  87 E12       29.70F
WORTHINGTON    CLOUDY    45  39  81 E15       29.68F
JACKSON        CLOUDY    45  39  81 E14       29.69S
TRACY          CLOUDY    45  42  88 E15G21    29.70F
SLAYTON        CLOUDY    44  43  97 E10       29.68F
$$
MNZ065>067-074>077-082>085-091>093-250900-
   South Central Minnesota

CITY           SKY/WX    TMP DP  RH WIND       PRES   REMARKS
MANKATO        CLOUDY    45  36  70 E16       29.74F
NEW ULM        CLOUDY    45  39  81 E14       29.73S
ST JAMES       CLOUDY    45  39  81 E12       29.73F
FAIRMONT       CLOUDY    45  18  33 E15       29.69F
GLENCOE        CLOUDY    44  41  89 E13G18    29.76S
FARIBAULT      CLOUDY    43  39  87 E10       29.77S
OWATONNA       MOCLDY    43  37  81 E13       29.76S
WASECA         CLOUDY    43  37  81 E20G26    29.76S
ALBERT LEA     CLOUDY    43  39  87 E15       29.73F
$$
MNZ078>079-086>088-094>096-250900-
   Southeast Minnesota

CITY           SKY/WX    TMP DP  RH WIND       PRES   REMARKS
ROCHESTER      CLOUDY    41  37  86 E17       29.77F
RED WING       CLOUDY    43  37  81 E10       29.81R
STANTON        CLOUDY    43  38  82 E9G20     29.77F
DODGE CENTER   CLOUDY    41  39  93 E16       29.76F
AUSTIN         CLOUDY    43  37  81 E16G23    29.73F
PRESTON        CLOUDY    40  35  81 E15       29.78F
$$
ABBREVIATIONS USED IN REMARKS
   TC - TEMPERATURES IN CELSIUS
  WCI - WIND CHILL INDEX
   HX - HEAT INDEX
  VSB - VISIBILITY
$$



USA.gov is the U.S. government's official web portal to all federal, state and local government web resources and services.